FW1937 Weather Reports


time (UTC)temp
C
wind
direction
speed
KPH
gust
KPH
rain 1hr
cm
rain 24hr
cm
rain mn
cm
humidity
%
barometer
mb
20260507074417 11 233 1.6 3.2 0.00 0.28 0.03 68 1007.2
20260507073915 11 240 1.6 8.0 0.00 0.28 0.03 69 1007.2
20260507073413 11 240 3.2 8.0 0.00 0.28 0.03 68 1007.2
20260507072913 10 194 3.2 9.7 0.00 0.28 0.03 69 1007.3
20260507072412 10 157 3.2 9.7 0.00 0.28 0.03 69 1007.3
20260507071912 10 173 1.6 8.0 0.00 0.28 0.03 69 1007.2
20260507071413 10 222 3.2 8.0 0.00 0.28 0.03 69 1007.3
20260507070913 10 220 3.2 8.0 0.00 0.28 0.03 69 1007.4
20260507070412 10 215 4.8 8.0 0.00 0.28 0.03 69 1007.3
20260507065912 9 208 4.8 8.0 0.00 0.28 0.03 69 1007.4
20260507065412 9 213 3.2 6.4 0.00 0.28 0.03 69 1007.4
20260507064913 9 238 3.2 6.4 0.00 0.28 0.03 69 1007.4
20260507064413 9 240 1.6 6.4 0.00 0.28 0.03 69 1007.4
20260507063913 8 212 0.0 0.0 0.00 0.28 0.03 69 1007.4
20260507063412 8 213 0.0 4.8 0.03 0.28 0.03 69 1007.5
20260507062912 8 223 1.6 4.8 0.03 0.28 0.03 69 1007.5
20260507062412 8 223 3.2 4.8 0.03 0.28 0.03 69 1007.4
20260507062131 8 224 3.2 4.8 0.03 0.28 0.03 69 1007.4
20260507061413 8 229 3.2 4.8 0.03 0.28 0.03 69 1007.4
20260507060912 7 240 3.2 6.4 0.03 0.28 0.03 69 1007.6
20260507060413 7 229 3.2 6.4 0.03 0.28 0.03 69 1007.6
20260507055912 7 228 1.6 4.8 0.03 0.28 0.03 69 1007.6
20260507055413 7 226 0.0 4.8 0.03 0.28 0.03 69 1007.6
20260507054912 7 217 0.0 4.8 0.03 0.28 0.03 69 1007.6
20260507054413 7 219 0.0 3.2 0.03 0.28 0.03 69 1007.6
20260507054133 7 217 0.0 0.0 0.03 0.28 0.03 69 1007.6
20260507053412 7 217 0.0 0.0 0.00 0.25 0.00 69 1007.6
20260507052912 7 217 0.0 0.0 0.00 0.25 0.00 69 1007.4
20260507052413 7 217 0.0 0.0 0.00 0.25 0.00 69 1007.5
20260507051913 7 217 0.0 3.2 0.00 0.25 0.00 69 1007.5
20260507051413 7 217 0.0 3.2 0.00 0.28 0.00 69 1007.5
20260507050914 7 217 1.6 6.4 0.00 0.30 0.00 69 1007.5
20260507050638 7 217 3.2 6.4 0.00 0.30 0.00 69 1007.5
20260507045912 7 250 1.6 4.8 0.00 0.33 0.00 69 1007.5
20260507045633 7 254 1.6 4.8 0.00 0.36 0.00 69 1007.5
20260507044413 7 228 0.0 0.0 0.00 0.41 0.00 68 1007.3
20260507043912 7 228 0.0 0.0 0.00 0.43 0.00 68 1007.4
20260507043412 7 228 0.0 0.0 0.00 0.51 0.00 69 1007.4
20260507043130 7 228 0.0 0.0 0.00 0.53 0.00 69 1007.4
20260507042413 7 228 0.0 0.0 0.00 0.58 0.00 69 1007.4
20260507041912 7 228 0.0 4.8 0.00 0.58 0.00 69 1007.5
20260507041411 7 228 0.0 4.8 0.00 0.61 0.00 69 1007.4
20260507040910 7 228 1.6 3.2 0.00 0.61 0.00 69 1007.5
20260507040404 7 228 1.6 4.8 0.00 0.61 0.00 69 1007.5
20260507035404 7 227 1.6 3.2 0.00 0.61 0.00 69 1007.6
20260507034904 7 227 0.0 3.2 0.00 0.61 0.00 69 1007.7
20260507033903 7 227 1.6 4.8 0.00 0.61 0.00 69 1007.7
20260507033404 7 227 1.6 4.8 0.00 0.61 0.00 69 1007.5
20260507032903 7 228 0.0 1.6 0.00 0.61 0.00 69 1007.6
20260507032404 7 228 1.6 4.8 0.00 0.61 0.00 69 1007.7
20260507031903 7 228 1.6 4.8 0.00 0.61 0.00 69 1007.6
20260507031625 7 228 3.2 4.8 0.00 0.61 0.00 69 1007.6
20260507030917 7 229 1.6 6.4 0.00 0.61 0.00 69 1007.7
20260507030404 7 232 1.6 6.4 0.00 0.61 0.00 69 1007.7
20260507025904 7 231 1.6 4.8 0.00 0.61 0.00 68 1007.7
20260507025403 7 232 1.6 4.8 0.00 0.61 0.00 68 1007.7
20260507024903 7 241 0.0 4.8 0.00 0.61 0.00 69 1007.6
20260507024619 8 243 0.0 0.0 0.00 0.61 0.00 69 1007.5
20260507024127 8 243 0.0 0.0 0.00 0.61 0.00 69 1007.6
20260507023358 8 242 0.0 0.0 0.00 0.61 0.00 69 1007.7
20260507023118 8 242 0.0 0.0 0.00 0.61 0.00 69 1007.8
20260507022347 8 242 0.0 0.0 0.00 0.61 0.00 69 1007.7
20260507022108 8 242 0.0 0.0 0.00 0.61 0.00 68 1007.8
20260507021606 8 242 0.0 1.6 0.00 0.61 0.00 69 1007.8
20260507020844 8 242 0.0 1.6 0.00 0.61 0.00 69 1007.8
20260507020343 8 242 0.0 3.2 0.00 0.61 0.00 69 1007.7
20260507015843 8 243 0.0 3.2 0.00 0.61 0.00 69 1007.8
20260507015343 8 243 0.0 1.6 0.00 0.61 0.00 69 1007.8
20260507014844 8 243 1.6 3.2 0.00 0.61 0.00 69 1007.8
20260507014344 8 243 1.6 4.8 0.00 0.61 0.00 69 1007.9
20260507013843 8 244 1.6 4.8 0.00 0.61 0.00 69 1008.0
20260507013343 8 244 1.6 3.2 0.00 0.61 0.00 69 1008.0
20260507013107 8 247 3.2 6.4 0.00 0.61 0.00 69 1007.9
20260507012343 8 249 1.6 6.4 0.00 0.61 0.00 69 1008.0
20260507011844 8 191 0.0 3.2 0.00 0.61 0.00 69 1008.1
20260507011342 8 190 1.6 4.8 0.00 0.61 0.00 69 1008.0
20260507011107 8 190 1.6 6.4 0.00 0.61 0.00 69 1008.0
20260507010352 8 190 1.6 6.4 0.00 0.61 0.00 69 1008.0
20260507005839 8 211 1.6 4.8 0.00 0.61 0.00 69 1008.0
20260507005340 8 211 0.0 4.8 0.00 0.61 0.00 69 1008.0
20260507004340 8 211 1.6 4.8 0.00 0.61 0.00 69 1008.2
20260507003853 8 206 1.6 4.8 0.00 0.61 0.00 69 1008.2
20260507003340 8 205 3.2 6.4 0.00 0.61 0.00 69 1008.3
20260507002839 8 205 3.2 6.4 0.00 0.61 0.00 69 1008.3
20260507002335 8 267 1.6 4.8 0.00 0.61 0.00 69 1008.3
20260507002102 8 213 0.0 0.0 0.00 0.61 0.00 69 1008.3
20260507001335 8 213 0.0 0.0 0.00 0.61 0.00 69 1008.4
20260507000835 8 213 0.0 0.0 0.00 0.61 0.00 69 1008.3
20260507000558 8 213 0.0 0.0 0.00 0.61 0.00 69 1008.5
20260507000056 9 213 0.0 0.0 0.00 0.61 0.00 69 1008.5
20260506235335 9 214 0.0 0.0 0.00 0.61 0.00 69 1008.5
20260506234843 9 214 0.0 3.2 0.00 0.61 0.00 69 1008.5
20260506234327 9 214 1.6 3.2 0.00 0.61 0.00 69 1008.5
20260506233827 9 212 1.6 4.8 0.00 0.61 0.00 69 1008.5
20260506233320 9 211 1.6 4.8 0.00 0.61 0.00 69 1008.7
20260506232822 9 211 0.0 1.6 0.00 0.61 0.00 69 1008.8
20260506232319 9 211 0.0 1.6 0.00 0.61 0.00 69 1008.7
20260506231823 9 211 1.6 3.2 0.00 0.61 0.00 69 1008.7
20260506231331 9 211 1.6 3.2 0.00 0.61 0.00 69 1008.8
20260506230823 9 211 1.6 3.2 0.00 0.61 0.00 69 1008.7
20260506230540 9 210 1.6 4.8 0.00 0.61 0.00 69 1008.7
20260506225822 9 210 1.6 4.8 0.00 0.61 0.00 69 1008.7
20260506225312 9 210 0.0 3.2 0.00 0.61 0.00 69 1008.7
20260506224816 10 210 1.6 3.2 0.00 0.61 0.00 69 1008.7
20260506224303 10 210 1.6 3.2 0.00 0.61 0.00 69 1008.8
20260506223806 10 210 1.6 3.2 0.00 0.61 0.00 69 1008.8
20260506223304 9 210 1.6 4.8 0.00 0.61 0.00 69 1008.8
20260506222806 9 209 1.6 4.8 0.00 0.61 0.00 69 1008.9
20260506222306 9 208 1.6 4.8 0.00 0.61 0.00 70 1008.9
20260506221806 9 207 1.6 4.8 0.00 0.61 0.00 70 1008.9
20260506221304 10 208 1.6 3.2 0.00 0.61 0.00 70 1008.8
20260506220806 10 208 1.6 3.2 0.00 0.61 0.00 70 1008.7
20260506220303 10 208 1.6 3.2 0.00 0.61 0.00 70 1008.8
20260506215806 10 208 0.0 3.2 0.00 0.61 0.61 70 1008.8
20260506215306 10 207 0.0 0.0 0.00 0.61 0.61 70 1008.8
20260506214807 10 207 0.0 3.2 0.00 0.61 0.61 70 1008.8
20260506214524 10 207 1.6 3.2 0.00 0.61 0.61 71 1008.9
20260506213808 10 207 1.6 3.2 0.00 0.61 0.61 71 1009.0
20260506213305 10 207 1.6 3.2 0.00 0.61 0.61 71 1009.0
20260506212806 10 207 1.6 3.2 0.00 0.61 0.61 71 1008.9
20260506212306 10 207 1.6 3.2 0.00 0.61 0.61 71 1008.9
20260506211807 10 207 1.6 4.8 0.00 0.61 0.61 71 1008.9
20260506211304 10 207 3.2 4.8 0.00 0.61 0.61 71 1009.0
20260506211030 10 207 3.2 6.4 0.00 0.61 0.61 71 1008.9
20260506210528 10 207 1.6 6.4 0.00 0.61 0.61 71 1009.0
20260506210031 11 242 1.6 4.8 0.00 0.61 0.61 71 1008.9
20260506205305 11 244 1.6 4.8 0.00 0.61 0.61 71 1008.8
20260506204806 11 244 3.2 4.8 0.00 0.61 0.61 71 1008.8
20260506204303 11 301 3.2 4.8 0.00 0.61 0.61 71 1008.9
20260506203806 11 308 1.6 4.8 0.00 0.61 0.61 71 1008.9
20260506203523 11 309 1.6 3.2 0.00 0.61 0.61 71 1008.9
20260506202806 11 309 1.6 4.8 0.00 0.61 0.61 71 1008.9
20260506202306 11 309 1.6 4.8 0.00 0.61 0.61 70 1008.9
20260506201819 11 309 1.6 4.8 0.00 0.61 0.61 70 1008.8
20260506201304 12 311 1.6 4.8 0.00 0.61 0.61 70 1008.8
20260506200806 12 311 1.6 3.2 0.00 0.61 0.61 70 1008.8
20260506200303 12 311 1.6 3.2 0.00 0.61 0.61 70 1008.8
20260506195808 12 311 1.6 3.2 0.00 0.61 0.61 69 1008.7
20260506195256 12 311 1.6 3.2 0.00 0.61 0.61 69 1015.1
20260506194755 12 311 1.6 3.2 0.00 0.61 0.61 69 1008.5
20260506194256 13 312 1.6 3.2 0.00 0.61 0.61 69 1008.4
20260506193758 13 312 0.0 3.2 0.00 0.61 0.61 69 1008.4
20260506193254 13 313 1.6 3.2 0.00 0.61 0.61 69 1008.4
20260506192751 13 313 1.6 4.8 0.00 0.61 0.61 68 1008.4
20260506192249 14 313 0.0 4.8 0.00 0.61 0.61 67 1008.4
20260506191750 14 314 1.6 4.8 0.00 0.61 0.61 67 1008.3
20260506191245 15 314 1.6 4.8 0.00 0.61 0.61 67 1008.4
20260506190741 15 315 0.0 0.0 0.00 0.61 0.61 67 1008.3
20260506185740 15 315 0.0 0.0 0.00 0.61 0.61 66 1008.2
20260506185241 15 315 0.0 0.0 0.00 0.61 0.61 66 1008.1
20260506184740 15 315 0.0 0.0 0.00 0.61 0.61 66 1008.1
20260506184240 15 315 0.0 0.0 0.00 0.61 0.61 66 1008.2
20260506183740 15 315 0.0 0.0 0.00 0.61 0.61 66 1008.2
20260506183241 15 315 0.0 1.6 0.00 0.61 0.61 65 1008.2
20260506182740 16 315 0.0 1.6 0.00 0.61 0.61 66 1008.2
20260506182234 16 315 0.0 1.6 0.00 0.61 0.61 66 1008.1
20260506181734 16 314 0.0 1.6 0.00 0.61 0.61 66 1008.1
20260506181235 16 315 0.0 0.0 0.00 0.61 0.61 66 1008.1
20260506180735 16 314 1.6 3.2 0.00 0.61 0.61 65 1014.4
20260506180455 16 314 1.6 4.8 0.00 0.61 0.61 65 1008.1
20260506175734 16 309 1.6 4.8 0.00 0.61 0.61 65 1008.1
20260506175234 16 319 0.0 4.8 0.00 0.61 0.61 64 1008.2
20260506174734 16 306 0.0 3.2 0.00 0.61 0.61 65 1008.1
20260506174227 16 303 0.0 3.2 0.00 0.61 0.61 65 1008.1
20260506173950 16 302 0.0 6.4 0.00 0.61 0.61 65 1008.1
20260506173223 16 302 1.6 6.4 0.00 0.61 0.61 65 1008.1
20260506172721 16 234 1.6 3.2 0.00 0.61 0.61 66 1008.1
20260506172222 16 290 1.6 6.4 0.00 0.61 0.61 66 1008.1
20260506171722 15 291 1.6 6.4 0.00 0.61 0.61 66 1014.6
20260506171217 15 255 1.6 6.4 0.00 0.61 0.61 66 1008.1
20260506170718 15 237 1.6 6.4 0.00 0.61 0.61 66 1008.1
20260506170217 15 244 3.2 9.7 0.00 0.61 0.61 66 1008.1
20260506165718 15 250 1.6 9.7 0.00 0.61 0.61 66 1014.7
20260506165217 15 332 1.6 6.4 0.00 0.61 0.61 66 1008.2
20260506164718 15 233 3.2 12.9 0.00 0.61 0.61 66 1008.2
20260506164218 15 250 3.2 12.9 0.00 0.61 0.61 66 1008.2
20260506163713 15 210 4.8 12.9 0.00 0.61 0.61 66 1014.7
20260506163438 15 269 4.8 12.9 0.00 0.61 0.61 66 1008.2
20260506162713 15 235 4.8 16.1 0.00 0.61 0.61 66 1008.2
20260506162220 15 243 4.8 16.1 0.00 0.61 0.61 66 1008.3
20260506161718 15 298 6.4 17.7 0.00 0.61 0.61 66 1008.2
20260506161434 15 273 8.0 17.7 0.00 0.61 0.61 65 1008.2
20260506160713 15 281 4.8 12.9 0.00 0.61 0.61 65 1008.2
20260506160226 15 302 4.8 11.3 0.00 0.61 0.61 65 1008.1
20260506155713 15 300 6.4 12.9 0.00 0.61 0.61 65 1008.2
20260506155213 15 261 6.4 12.9 0.00 0.61 0.61 64 1008.2
20260506154714 15 258 6.4 17.7 0.00 0.61 0.61 65 1008.3
20260506154214 15 303 6.4 17.7 0.00 0.61 0.61 65 1008.3
20260506153713 15 227 6.4 14.5 0.00 0.64 0.61 65 1008.3
20260506153213 15 321 4.8 14.5 0.00 0.69 0.61 66 1008.3
20260506152713 15 259 4.8 12.9 0.00 0.69 0.61 67 1008.3
20260506152213 15 277 4.8 12.9 0.00 0.69 0.61 67 1008.4
20260506151713 15 252 4.8 11.3 0.00 0.69 0.61 67 1008.4
20260506151214 15 258 3.2 14.5 0.00 0.69 0.61 67 1008.4
20260506150713 15 286 4.8 14.5 0.00 0.69 0.61 67 1008.4
20260506150209 14 271 6.4 12.9 0.00 0.69 0.61 67 1008.5
20260506145709 14 300 4.8 14.5 0.00 0.69 0.61 67 1008.5
20260506145436 14 282 6.4 14.5 0.00 0.69 0.61 66 1008.5
20260506144709 14 284 4.8 12.9 0.00 0.69 0.61 66 1008.5
20260506144428 14 309 3.2 12.9 0.00 0.69 0.61 67 1008.5
20260506143709 14 266 3.2 12.9 0.00 0.69 0.61 67 1008.6
20260506143436 14 312 3.2 8.0 0.00 0.71 0.61 68 1008.6
20260506142709 14 241 3.2 6.4 0.00 0.71 0.61 68 1008.7
20260506141709 14 269 3.2 11.3 0.00 0.71 0.61 68 1008.7
20260506141210 13 292 4.8 11.3 0.00 0.71 0.61 68 1008.8
20260506140934 13 227 4.8 11.3 0.03 0.71 0.61 68 1008.7
20260506140210 13 259 4.8 14.5 0.03 0.74 0.61 68 1008.8
20260506135709 13 271 6.4 14.5 0.05 0.76 0.61 68 1008.9
20260506135210 13 242 8.0 17.7 0.05 0.81 0.61 68 1008.9
20260506134709 13 268 6.4 17.7 0.05 0.86 0.61 68 1008.8
20260506134209 13 250 6.4 17.7 0.05 0.86 0.61 68 1008.9
20260506133709 13 279 8.0 17.7 0.05 0.89 0.61 68 1008.9
20260506133209 13 254 8.0 17.7 0.05 0.89 0.61 68 1008.9
20260506132710 13 236 9.7 20.9 0.05 0.89 0.61 69 1008.8
20260506132209 13 304 9.7 20.9 0.05 0.89 0.61 69 1008.8
20260506131709 13 292 9.7 17.7 0.08 0.91 0.61 69 1008.9
20260506131209 13 271 9.7 25.7 0.10 0.91 0.61 69 1008.8
20260506130709 13 267 9.7 25.7 0.10 0.91 0.58 69 1008.7
20260506130209 13 292 9.7 25.7 0.10 0.97 0.58 69 1008.7
20260506125929 13 265 9.7 25.7 0.08 0.97 0.56 69 1008.7
20260506125210 13 262 12.9 25.7 0.08 0.99 0.56 70 1008.6
20260506124709 13 201 12.9 25.7 0.08 0.99 0.56 70 1008.6
20260506124209 13 260 9.7 22.5 0.08 0.99 0.56 70 1008.7
20260506123710 13 287 8.0 20.9 0.08 1.02 0.56 70 1008.6
20260506123210 13 256 8.0 19.3 0.05 1.02 0.53 70 1008.6
20260506122709 13 271 11.3 22.5 0.05 1.02 0.53 70 1008.5
20260506122209 13 290 11.3 22.5 0.05 1.04 0.53 69 1008.5
20260506121210 13 236 11.3 24.1 0.03 1.07 0.51 68 1008.6
20260506120709 13 247 12.9 24.1 0.00 1.04 0.48 68 1008.5
20260506120210 13 265 12.9 25.7 0.00 1.04 0.48 68 1008.6
20260506115709 13 241 11.3 25.7 0.00 1.04 0.48 67 1008.5
20260506115210 13 264 9.7 19.3 0.00 1.04 0.48 67 1008.6
20260506114709 14 234 8.0 17.7 0.00 1.04 0.48 67 1008.4
20260506114209 13 280 9.7 20.9 0.00 1.04 0.48 68 1008.5
20260506113709 13 264 9.7 20.9 0.00 1.04 0.48 67 1008.4
20260506113209 13 248 9.7 24.1 0.00 1.04 0.48 67 1008.5
20260506112709 14 350 11.3 25.7 0.00 1.04 0.48 67 1008.6
20260506112426 14 250 11.3 25.7 0.00 1.04 0.48 66 1008.5
20260506111659 14 229 9.7 32.2 0.00 1.04 0.48 66 1008.4
20260506111159 14 267 11.3 32.2 0.00 1.04 0.48 66 1008.4
20260506110659 14 200 9.7 20.9 0.00 1.04 0.48 65 1008.2
20260506110200 14 271 8.0 20.9 0.00 1.04 0.48 65 1008.1
20260506105700 14 250 8.0 20.9 0.00 1.04 0.48 65 1008.2
20260506105200 14 239 9.7 22.5 0.00 1.04 0.48 65 1008.1
20260506104659 14 267 11.3 22.5 0.00 1.04 0.48 65 1008.1
20260506104159 14 238 9.7 20.9 0.00 1.04 0.48 65 1008.0
20260506103659 14 264 8.0 19.3 0.00 1.04 0.48 66 1008.0
20260506103159 14 290 8.0 19.3 0.00 1.04 0.48 66 1008.0
20260506102659 14 230 6.4 17.7 0.00 1.04 0.48 66 1008.1
20260506102200 14 252 4.8 14.5 0.00 1.04 0.48 67 1008.1
20260506101659 13 173 4.8 12.9 0.00 1.04 0.48 67 1008.1
20260506101159 13 263 6.4 12.9 0.00 1.04 0.48 67 1008.2
20260506100700 13 194 8.0 17.7 0.03 1.04 0.48 67 1008.1
20260506100212 13 192 8.0 17.7 0.03 1.04 0.48 67 1008.2
20260506095700 13 155 9.7 20.9 0.05 1.04 0.48 67 1008.1
20260506095200 13 214 9.7 20.9 0.05 1.04 0.48 67 1008.0
20260506094916 13 208 9.7 17.7 0.05 1.04 0.48 67 1008.1
20260506094151 12 219 9.7 16.1 0.05 1.04 0.48 67 1008.2
20260506093643 12 174 9.7 16.1 0.05 1.04 0.48 67 1008.2
20260506093143 12 246 9.7 16.1 0.05 1.04 0.48 67 1008.2
20260506092407 12 214 6.4 12.9 0.05 1.04 0.48 67 1008.1
20260506091143 12 228 8.0 16.1 0.05 1.04 0.48 67 1008.1
20260506090643 12 183 6.4 20.9 0.05 1.02 0.46 67 1008.0
20260506090144 12 220 4.8 20.9 0.05 0.99 0.43 67 1008.0
20260506085643 12 188 4.8 11.3 0.08 0.99 0.43 67 1008.0
20260506085143 12 192 4.8 11.3 0.10 0.99 0.43 67 1007.9
20260506084643 12 227 6.4 11.3 0.10 0.99 0.43 67 1007.8
20260506084143 12 219 6.4 11.3 0.10 0.99 0.43 68 1007.8
20260506083643 12 235 6.4 14.5 0.10 0.99 0.43 68 1007.8
20260506083143 12 194 6.4 14.5 0.08 0.99 0.43 67 1007.8
20260506082643 12 196 6.4 19.3 0.08 0.99 0.43 68 1007.8
20260506081643 12 259 4.8 16.1 0.08 0.99 0.43 68 1007.8
20260506081143 12 224 4.8 11.3 0.08 0.99 0.43 68 1007.8
20260506080904 12 215 3.2 11.3 0.08 0.99 0.43 68 1007.7
20260506080146 12 221 4.8 11.3 0.05 0.99 0.41 68 1007.7